• Join FlightAware (Why Join?)
  • Login
  • US Flag 
02:55PM EDT


 

Airport Tracker/Info


-or-


 

Live Flight TrackerFlight Track Log ✈ ASQ2592 ✈ 08-Jun-2013 ✈ KSHV - KDFW

Flight Track Log - Related Links

Times and Time Zones

All times are in EDT time to prevent confusion due to time zone crossing. See the ASQ2592 flight status page for this flight to view local times or setup timezone preferences in your user account.

Time Position Orientation Groundspeed Altitude Reporting Facility
EDT Latitude Longitude Course Direction KTS MPH feet Rate Location/Type
01:25PM 32.3708 -93.8175 180° South 227 261 3,500  Level Fort Worth Center
01:26PM 32.3561 -93.8917 257° West 249 287 6,400 2,880 Climbing Fort Worth Center
01:27PM 32.3625 -93.9728 275° West 266 306 9,300 2,220 Climbing Fort Worth Center
01:28PM 32.3697 -94.0781 275° West 291 335 10,900 1,500 Climbing Fort Worth Center
01:29PM 32.3661 -94.1792 268° West 330 380 12,300 1,800 Climbing Fort Worth Center
01:30PM 32.3567 -94.3072 265° West 354 407 14,500 1,800 Climbing Fort Worth Center
01:31PM 32.3486 -94.4083 265° West 354 407 15,900 720 Climbing Fort Worth Center
01:32PM 32.3375 -94.5489 265° West 385 443 16,000  Climbing Fort Worth Center
01:33PM 32.3236 -94.6747 263° West 397 457 16,000  Level Fort Worth Center
01:34PM 32.3117 -94.8078 264° West 397 457 16,000  Level Fort Worth Center
01:35PM 32.3019 -94.9433 265° West 408 470 16,000  Level Fort Worth Center
01:36PM 32.2939 -95.0736 266° West 413 475 16,000  Level Fort Worth Center
01:37PM 32.2797 -95.2067 263° West 413 475 16,000  Level Fort Worth Center
01:38PM 32.2672 -95.3372 264° West 407 468 16,000  Level Fort Worth Center
01:39PM 32.2569 -95.4678 265° West 407 468 16,000  Level Fort Worth Center
01:40PM 32.2525 -95.5981 268° West 407 468 16,000  Level Fort Worth Center
01:41PM 32.2731 -95.7278 281° West 401 461 16,000  Level Fort Worth Center
01:42PM 32.2956 -95.8578 282° West 406 467 16,000  Level Fort Worth Center
01:43PM 32.3094 -95.9731 278° West 406 467 16,000  Level Fort Worth Center
01:44PM 32.3319 -96.1178 280° West 412 474 16,000  Level Fort Worth Center
01:45PM 32.3497 -96.2331 280° West 407 468 16,000  Level Fort Worth Center
01:46PM 32.3739 -96.3753 281° West 412 474 16,000 -480 Level Fort Worth Center
01:47PM 32.4125 -96.4833 293° West 395 455 15,100 -1,620 Descending Fort Worth Center
01:48PM 32.4967 -96.5858 314° West 395 455 12,800 -2,040 Descending Fort Worth Center
01:49PM 32.5619 -96.6642 315° West 377 434 11,100 -960 Descending Fort Worth Center
01:50PM 32.6375 -96.7547 315° West 359 413 11,000 -120 Descending Fort Worth Center
01:50PM 32.6667 -96.7833 320° Northwest 353 406 11,000  Level Dallas / Fort Worth TRACON
01:51PM 32.7167 -96.8500 312° West 264 304 11,000  Level Dallas / Fort Worth TRACON
01:52PM 32.7667 -96.9000 320° Northwest 253 291 11,000 -780 Level Dallas / Fort Worth TRACON
01:53PM 32.8333 -96.9000 360° North 254 292 9,600 -1,740 Descending Dallas / Fort Worth TRACON
01:54PM 32.9167 -96.9000 360° North 240 276 7,400 -2,100 Descending Dallas / Fort Worth TRACON
01:55PM 32.9667 -96.9000 360° North 238 274 5,500 -2,100 Descending Dallas / Fort Worth TRACON
01:56PM 33.0167 -96.9667 312° West 239 275 3,200 -1,620 Descending Dallas / Fort Worth TRACON
01:57PM 32.9833 -97.0167 232° Southwest 198 228 2,100 -1,020 Descending Dallas / Fort Worth TRACON
01:58PM 32.9500 -97.0167 180° South 137 158 1,200 -900 Descending Dallas / Fort Worth TRACON